User: anonymous   Login
Location: Anjeux
(47.8815°N, 6.2076°E)
Time: 02:25:36
(UTC+00:00)
Language:

BEESAT 2 - Orbit

View from above orbital plane
View from above orbital plane
View from above satellite
View from above satellite

Ground track
Ground track

The orbit data is extracted from the following two-line orbital elements,

1 39136U 13015G   21332.56400556  .00003297  00000-0  16308-3 0  9996
2 39136  64.8768  37.4559 0014046 246.3834 113.5818 15.19598187475367
Epoch (UTC): 28 November 2021 13:32:10
Eccentricity: 0.0014046
inclination: 64.8768°
perigee height: 497 km
apogee height: 517 km
right ascension of ascending node: 37.4559°
argument of perigee: 246.3834°
revolutions per day: 15.19598187
mean anomaly at epoch: 113.5818°
orbit number at epoch: 47536

The dashed part of the orbit path shows where the satellite is in the earth's shadow,  

DLR